Regional Weather Roundup
Issued by NWS Charleston, SC

Home | Current Version | Previous Version | Text Only | Print | Product List | Glossary On
Versions: 1 2 3 4 5 6 7 8 9 10 11 12 13 14 15 16 17 18 19 20 21 22 23 24 25 26 27 28 29 30 31 32 33 34 35 36 37 38 39 40 41 42 43 44 45 46 47 48 49 50
000
ASUS42 KCHS 020827
RWRCHS
REGIONAL WEATHER ROUNDUP
NATIONAL WEATHER SERVICE CHARLESTON SC
400 AM EDT WED SEP 02 2015

NOTE: "FAIR" INDICATES FEW OR NO CLOUDS BELOW 12,000 FEET WITH NO
SIGNIFICANT WEATHER AND/OR OBSTRUCTIONS TO VISIBILITY.

NOT ALL STATIONS ARE QUALITY CONTROLLED BY THE NATIONAL
WEATHER SERVICE. USE DATA WITH CAUTION...ESPECIALLY
DEWPOINT OBSERVATIONS.

SCZ027-030-031-034>040-042>050-020900-
...SOUTHEAST SOUTH CAROLINA...

CITY           SKY/WX    TMP DP  RH WIND       PRES   REMARKS
N CHARLESTON   PTCLDY    76  74  93 CALM      30.06S
WATERFRONT PRK   N/A     79  77  94 CALM      30.03F
MOUNT PLEASANT LGT RAIN  75  75 100 CALM      30.06S
JOHNS ISLAND   FAIR      77  75  94 CALM      30.06R
PINOPOLIS        N/A     81  75  83 SW5       29.98F
MONCKS CORNER  FAIR      73  72  94 CALM      30.06S FOG
SUMMERVILLE    CLOUDY    72  72 100 CALM      30.08R FOG
BEAUFORT MCAS  PTCLDY    76  75  97 CALM      30.06S
BEAUFORT ARPT  FAIR      77  77 100 CALM      30.05S
HILTON HEAD IS NOT AVBL
WALTERBORO     CLOUDY    73  72  94 CALM      30.08R FOG
ALLENDALE      FAIR      73  72  94 CALM      30.07R

...SOUTHERN MIDLANDS AND PEE DEE...

CITY           SKY/WX    TMP DP  RH WIND       PRES   REMARKS
GEORGETOWN     NOT AVBL
KINGSTREE      NOT AVBL
ORANGEBURG     PTCLDY    72  70  93 CALM      30.07F
BARNWELL       FAIR      72  72 100 CALM      30.09R
AIKEN          FAIR      70  68  94 CALM      30.12S
MANNING        FAIR      72  72 100 CALM      30.07S
COLUMBIA       PTCLDY    73  68  84 W3        30.07F
SUMTER         CLEAR     74  72  92 W2        30.05F
FLORENCE       CLEAR     75  73  93 W3        30.07S
MYRTLE BEACH   CLEAR     75  70  83 CALM      30.08S
N MYRTLE BEACH CLEAR     75  73  93 CALM      30.06F

$$

GAZ063-065-086>088-099>101-113>116-118-119-134>141-150-020900-
...SOUTHEAST GEORGIA...

CITY           SKY/WX    TMP DP  RH WIND       PRES   REMARKS
SAVANNAH ARPT  FAIR      75  73  93 N3        30.06S
HUNTER AAF     PTCLDY    75  75 100 CALM      30.03S
FORT STEWART   PTCLDY    74  72  94 CALM      30.03F
STATESBORO     CLEAR     73  32  22 CALM      30.07S HAZE
SYLVANIA       FOG       74  74 100 CALM      30.08S VSB 3/4
CLAXTON        NOT AVBL

...CSRA...CENTRAL AND FAR SOUTHEAST GEORGIA...

CITY           SKY/WX    TMP DP  RH WIND       PRES   REMARKS
THOMSON        PTCLDY    69  69 100 CALM      30.13S
AUGUSTA-BUSH   PTCLDY    69  69 100 CALM      30.07S FOG
AUGUSTA-DANIEL PTCLDY    76  71  85 CALM      30.09S
SWAINSBORO     FAIR     N/A N/A N/A CALM      30.08S
VIDALIA        MOCLDY    73  73 100 CALM      30.07S
EASTMAN        FOG       71  71 100 CALM      30.09S VSB 1/2
HAZLEHURST     CLOUDY    76  76 100 CALM      30.05S
ALMA           MOCLDY    74  74 100 CALM      30.05F FOG
WAYCROSS       CLOUDY    79  79 100 CALM      30.05S
JESUP          FAIR      77  75  94 CALM      30.05S
BAXLEY         FAIR      75  73  94 CALM      30.05S
BRUNSWICK      MOCLDY    72  72 100 CALM      30.05S
SAINT SIMONS   MOCLDY    81  76  84 S5        30.03F

$$

SCZ027-028-034-036>038-045-046-048>050-GAZ119-141-020900-
...LAKE AND SUPPLEMENTAL COASTAL OBSERVATIONS...

STATION/POSITION TIME  TEMP    WIND        PRES    WAVE   SWELL
                       AIR SEA DIR/SP/G            HT/PER HT/PER/DIR
                 (UTC) (F)     (DEG/KT/KT) (MB)    (FT/S) (FT/S/D)
UPR LAKE MARION  NOT AVBL
WINYAH BAY       0745   75     310/  3     1017.0F
LAKE MURRAY      0700   78     280/  2/  4 1017.9S
ACE BASIN NERRS  NOT AVBL
FORT PULASKI     0800   80 83  250/  1/  2 1018.0F
SAPELO ISLAND    0800   77     160/  2     1017.0S

$$

ANZ835-935-AMZ111-154-330-350-352-354-370-450-454-472-020900-
...C-MAN AND BUOY OBSERVATIONS...

STATION/POSITION TIME  TEMP    WIND        PRES    WAVE   SWELL
                       AIR SEA DIR/SP/G            HT/PER HT/PER/DIR
                 (UTC) (F)     (DEG/KT/KT) (MB)    (FT/S) (FT/S/D)
BUOY 41004       0750   83 83  190/  6/  6 1017.3F   2/ 7   2/ 7
BUOY 41008       0750   83 84  180/  6/  8 1017.6F   2/10   2/120/10
FOLLY BEACH CMAN 0800   78     330/  2/  2 1017.9S
CAPERS NEARSHORE 0708   82     250/  6/  6 1017.9F
FRIPP NEARSHORE  0700   82     210/  6/  6 1017.6F


STATION/POSITION TIME  TEMP    WIND        PRES    WAVE   SWELL
                       AIR SEA DIR/SP/G            HT/PER HT/PER/DIR
                 (UTC) (F)     (DEG/KT/KT) (MB)    (FT/S) (FT/S/D)
5E ST. MARYS GA  0721      85                N/A     2/ 9
FRYING PAN BUOY  0750   82 81  240/  8/ 10 1018.4F   2/ 8   2/120/ 8
BUOY 41025       0750   80 83  280/  8/  8 1017.1F   2/ 9   2/ 70/ 9
CAPE LOOKOUT NC  0800   79     280/  9/ 11 1017.2F
BUOY 41002       0750   84 84  280/ 10/ 10 1017.4F   3/10   2/110/10
BUOY 41010       0720   84 86   90/  4/  4 1018.1F
ST AUGUSTINE FL  0800   81 83  190/  8/  9 1018.1F


$$


USA.gov is the U.S. government's official web portal to all federal, state and local government web resources and services.